Location: *
(57.8420°S, 159.8600°W)
Time: 12:28:25
(UTC+00:00)

Cosmos 1484 Rocket - Pass Details

Date: 18 May 2021
Orbit: 504 x 559 km, 97.4° (Epoch: 22 June)

Event Time Altitude Azimuth Distance (km) Brightness Sun altitude
Rises 03:07:11 0° 163° (SSE) 2,683 5.9 -5.4°
Reaches altitude 10° 03:09:20 10° 159° (SSE) 1,794 5.0 -5.7°
Maximum altitude 03:13:09 59° 78° (ENE) 627 2.9 -6.1°
Drops below altitude 10° 03:17:00 10° 358° (N) 1,801 5.9 -6.6°
Sets 03:19:09 0° 354° (N) 2,694 6.8 -6.8°
